| time (UTC) | temp C | wind direction | speed KPH | gust KPH | rain 1hr cm | rain 24hr cm | rain mn cm | humidity % | barometer mb |
| 20260507162047 | 13 | 0 | 0.0 | 0.0 | 0.00 | 0.00 | 0.00 | 69 | 1017.3 |
| 20260507161048 | 13 | 0 | 0.0 | 0.0 | 0.00 | 0.00 | 0.00 | 67 | 1017.3 |
| 20260507160046 | 13 | 0 | 0.0 | 0.0 | 0.00 | 0.00 | 0.00 | 66 | 1017.3 |
| 20260507155051 | 13 | 0 | 0.0 | 0.0 | 0.00 | 0.00 | 0.00 | 66 | 1017.3 |
| 20260507154046 | 13 | 0 | 0.0 | 0.0 | 0.00 | 0.00 | 0.00 | 66 | 1017.3 |
| 20260507153045 | 14 | 0 | 0.0 | 0.0 | 0.00 | 0.00 | 0.00 | 65 | 1017.3 |
| 20260507152047 | 14 | 0 | 0.0 | 0.0 | 0.00 | 0.00 | 0.00 | 64 | 1017.3 |
| 20260507151044 | 14 | 0 | 0.0 | 0.0 | 0.00 | 0.00 | 0.00 | 64 | 1017.3 |
| 20260507150046 | 14 | 0 | 0.0 | 0.0 | 0.00 | 0.00 | 0.00 | 65 | 1017.3 |
| 20260507145047 | 13 | 0 | 0.0 | 0.0 | 0.00 | 0.00 | 0.00 | 64 | 1017.2 |
| 20260507144047 | 14 | 0 | 0.0 | 0.0 | 0.00 | 0.00 | 0.00 | 64 | 1017.2 |
| 20260507143044 | 14 | 0 | 0.0 | 0.0 | 0.00 | 0.00 | 0.00 | 66 | 1017.2 |
| 20260507142045 | 14 | 0 | 0.0 | 0.0 | 0.00 | 0.00 | 0.00 | 64 | 1017.3 |
| 20260507141047 | 14 | 0 | 0.0 | 0.0 | 0.00 | 0.00 | 0.00 | 64 | 1017.4 |
| 20260507140052 | 14 | 0 | 0.0 | 0.0 | 0.00 | 0.00 | 0.00 | 62 | 1017.4 |
| 20260507134045 | 15 | 0 | 0.0 | 0.0 | 0.00 | 0.00 | 0.00 | 65 | 1017.4 |
| 20260507133046 | 14 | 0 | 0.0 | 0.0 | 0.00 | 0.00 | 0.00 | 65 | 1017.5 |
| 20260507132047 | 14 | 0 | 0.0 | 0.0 | 0.00 | 0.00 | 0.00 | 65 | 1017.5 |
| 20260507130047 | 13 | 0 | 0.0 | 0.0 | 0.00 | 0.00 | 0.00 | 67 | 1017.5 |
| 20260507125045 | 13 | 0 | 0.0 | 0.0 | 0.00 | 0.00 | 0.00 | 67 | 1017.5 |
| 20260507124045 | 13 | 0 | 0.0 | 0.0 | 0.00 | 0.00 | 0.00 | 68 | 1017.6 |
| 20260507123047 | 13 | 0 | 0.0 | 0.0 | 0.00 | 0.00 | 0.00 | 67 | 1017.6 |
| 20260507122047 | 13 | 0 | 0.0 | 0.0 | 0.00 | 0.00 | 0.00 | 67 | 1017.6 |
| 20260507121047 | 13 | 0 | 0.0 | 0.0 | 0.00 | 0.00 | 0.00 | 72 | 1017.6 |
| 20260507120046 | 12 | 0 | 0.0 | 0.0 | 0.00 | 0.00 | 0.00 | 71 | 1017.6 |
| 20260507115047 | 12 | 0 | 0.0 | 0.0 | 0.00 | 0.00 | 0.00 | 70 | 1017.6 |
| 20260507114044 | 12 | 0 | 0.0 | 0.0 | 0.00 | 0.00 | 0.00 | 69 | 1017.6 |
| 20260507113044 | 12 | 0 | 0.0 | 0.0 | 0.00 | 0.00 | 0.00 | 68 | 1017.6 |
| 20260507112043 | 12 | 0 | 0.0 | 0.0 | 0.00 | 0.00 | 0.00 | 68 | 1017.5 |
| 20260507111047 | 13 | 0 | 0.0 | 0.0 | 0.00 | 0.00 | 0.00 | 71 | 1017.5 |
| 20260507110044 | 13 | 0 | 0.0 | 0.0 | 0.00 | 0.00 | 0.00 | 69 | 1017.5 |
| 20260507105047 | 12 | 0 | 0.0 | 0.0 | 0.00 | 0.00 | 0.00 | 71 | 1017.6 |
| 20260507104044 | 12 | 0 | 0.0 | 0.0 | 0.00 | 0.00 | 0.00 | 67 | 1017.6 |
| 20260507103046 | 12 | 0 | 0.0 | 0.0 | 0.00 | 0.03 | 0.00 | 69 | 1017.7 |
| 20260507102042 | 12 | 0 | 0.0 | 0.0 | 0.00 | 0.03 | 0.00 | 71 | 1017.6 |
| 20260507101044 | 12 | 0 | 0.0 | 0.0 | 0.00 | 0.03 | 0.00 | 69 | 1017.5 |
| 20260507095043 | 12 | 0 | 0.0 | 0.0 | 0.00 | 0.03 | 0.00 | 70 | 1017.4 |
| 20260507094043 | 12 | 0 | 0.0 | 0.0 | 0.00 | 0.05 | 0.00 | 72 | 1017.4 |
| 20260507092048 | 11 | 0 | 0.0 | 0.0 | 0.00 | 0.05 | 0.00 | 75 | 1017.4 |
| 20260507091044 | 12 | 0 | 0.0 | 0.0 | 0.00 | 0.08 | 0.00 | 75 | 1017.3 |
| 20260507090047 | 12 | 0 | 0.0 | 0.0 | 0.00 | 0.10 | 0.00 | 77 | 1017.2 |
| 20260507085045 | 12 | 0 | 0.0 | 0.0 | 0.00 | 0.10 | 0.00 | 79 | 1017.2 |
| 20260507083044 | 11 | 0 | 0.0 | 0.0 | 0.00 | 0.15 | 0.00 | 80 | 1017.2 |
| 20260507082045 | 11 | 0 | 0.0 | 0.0 | 0.00 | 0.15 | 0.00 | 81 | 1017.2 |
| 20260507081048 | 11 | 0 | 0.0 | 0.0 | 0.00 | 0.18 | 0.00 | 82 | 1017.1 |
| 20260507080045 | 11 | 0 | 0.0 | 0.0 | 0.00 | 0.18 | 0.00 | 84 | 1017.0 |
| 20260507075049 | 10 | 0 | 0.0 | 0.0 | 0.00 | 0.20 | 0.00 | 83 | 1017.1 |
| 20260507074045 | 10 | 0 | 0.0 | 0.0 | 0.00 | 0.20 | 0.00 | 84 | 1017.0 |
| 20260507073048 | 10 | 0 | 0.0 | 0.0 | 0.00 | 0.20 | 0.00 | 86 | 1017.0 |
| 20260507072045 | 10 | 0 | 0.0 | 0.0 | 0.00 | 0.20 | 0.00 | 88 | 1016.9 |
| 20260507071043 | 9 | 0 | 0.0 | 0.0 | 0.00 | 0.23 | 0.00 | 90 | 1016.9 |
| 20260507070046 | 8 | 0 | 0.0 | 0.0 | 0.00 | 0.23 | 0.00 | 93 | 1016.9 |
| 20260507064046 | 8 | 0 | 0.0 | 0.0 | 0.00 | 0.23 | 0.00 | 93 | 1016.9 |
| 20260507062045 | 7 | 0 | 0.0 | 0.0 | 0.00 | 0.25 | 0.00 | 99 | 1016.7 |
| 20260507060044 | 7 | 0 | 0.0 | 0.0 | 0.00 | 0.30 | 0.00 | 10 | 1016.6 |
| 20260507053042 | 7 | 0 | 0.0 | 0.0 | 0.00 | 0.38 | 0.00 | 10 | 1016.3 |
| 20260507052046 | 7 | 0 | 0.0 | 0.0 | 0.00 | 0.41 | 0.00 | 10 | 1016.2 |
| 20260507051047 | 7 | 0 | 0.0 | 0.0 | 0.00 | 0.43 | 0.00 | 10 | 1016.1 |
| 20260507050046 | 7 | 0 | 0.0 | 0.0 | 0.00 | 0.46 | 0.00 | 10 | 1015.9 |
| 20260507045045 | 7 | 0 | 0.0 | 0.0 | 0.00 | 0.46 | 0.00 | 10 | 1015.8 |
| 20260507044046 | 6 | 0 | 0.0 | 0.0 | 0.00 | 0.48 | 0.00 | 10 | 1015.7 |
| 20260507043048 | 6 | 0 | 0.0 | 0.0 | 0.00 | 0.51 | 0.00 | 10 | 1015.7 |
| 20260507042046 | 6 | 0 | 0.0 | 0.0 | 0.00 | 0.51 | 0.00 | 10 | 1015.6 |
| 20260507041045 | 6 | 0 | 0.0 | 0.0 | 0.00 | 0.51 | 0.00 | 10 | 1015.5 |
| 20260507040048 | 6 | 0 | 0.0 | 0.0 | 0.00 | 0.51 | 0.00 | 10 | 1015.5 |
| 20260507035045 | 6 | 0 | 0.0 | 0.0 | 0.00 | 0.53 | 0.00 | 10 | 1015.4 |
| 20260507034045 | 6 | 0 | 0.0 | 0.0 | 0.00 | 0.56 | 0.00 | 10 | 1015.5 |
| 20260507033047 | 6 | 0 | 0.0 | 0.0 | 0.00 | 0.56 | 0.00 | 10 | 1015.3 |
| 20260507032047 | 6 | 0 | 0.0 | 0.0 | 0.00 | 0.58 | 0.00 | 10 | 1015.3 |
| 20260507031046 | 6 | 0 | 0.0 | 0.0 | 0.00 | 0.61 | 0.00 | 10 | 1015.2 |
| 20260507030045 | 6 | 0 | 0.0 | 0.0 | 0.00 | 0.61 | 0.00 | 10 | 1015.2 |
| 20260507025044 | 7 | 0 | 0.0 | 0.0 | 0.00 | 0.61 | 0.00 | 10 | 1015.1 |
| 20260507024045 | 7 | 0 | 0.0 | 0.0 | 0.00 | 0.64 | 0.00 | 10 | 1015.1 |
| 20260507023042 | 6 | 0 | 0.0 | 0.0 | 0.00 | 0.64 | 0.00 | 10 | 1015.1 |
| 20260507022048 | 6 | 0 | 0.0 | 0.0 | 0.00 | 0.66 | 0.00 | 10 | 1015.0 |
| 20260507021044 | 7 | 0 | 0.0 | 0.0 | 0.00 | 0.69 | 0.00 | 10 | 1014.9 |
| 20260507020044 | 6 | 0 | 0.0 | 0.0 | 0.00 | 0.71 | 0.00 | 10 | 1014.9 |
| 20260507014044 | 6 | 0 | 0.0 | 0.0 | 0.00 | 0.76 | 0.00 | 10 | 1014.9 |
| 20260507012045 | 6 | 0 | 0.0 | 0.0 | 0.00 | 0.81 | 0.00 | 10 | 1014.8 |
| 20260507011046 | 6 | 0 | 0.0 | 0.0 | 0.00 | 0.84 | 0.00 | 10 | 1014.8 |
| 20260507010046 | 6 | 0 | 0.0 | 0.0 | 0.00 | 0.86 | 0.00 | 10 | 1014.7 |
| 20260507005045 | 6 | 0 | 0.0 | 0.0 | 0.00 | 0.89 | 0.00 | 10 | 1014.7 |
| 20260507004046 | 6 | 0 | 0.0 | 0.0 | 0.00 | 0.89 | 0.00 | 10 | 1014.7 |
| 20260507003044 | 6 | 0 | 0.0 | 0.0 | 0.00 | 0.89 | 0.00 | 10 | 1014.7 |
| 20260507002046 | 6 | 0 | 0.0 | 0.0 | 0.00 | 0.91 | 0.00 | 10 | 1014.7 |
| 20260507001043 | 6 | 0 | 0.0 | 0.0 | 0.00 | 0.97 | 0.00 | 10 | 1014.7 |
| 20260507000048 | 6 | 0 | 0.0 | 0.0 | 0.00 | 0.99 | 0.00 | 10 | 1014.6 |
| 20260506235048 | 6 | 0 | 0.0 | 0.0 | 0.00 | 1.04 | 0.00 | 10 | 1014.5 |
| 20260506234048 | 6 | 0 | 0.0 | 0.0 | 0.00 | 1.07 | 0.00 | 10 | 1014.6 |
| 20260506233049 | 6 | 0 | 0.0 | 0.0 | 0.00 | 1.09 | 0.00 | 10 | 1014.5 |
| 20260506232046 | 6 | 0 | 0.0 | 0.0 | 0.00 | 1.12 | 0.00 | 10 | 1014.5 |
| 20260506231047 | 5 | 0 | 0.0 | 0.0 | 0.00 | 1.14 | 0.00 | 10 | 1014.4 |
| 20260506230048 | 5 | 0 | 0.0 | 0.0 | 0.00 | 1.17 | 0.00 | 10 | 1014.3 |
| 20260506225045 | 5 | 0 | 0.0 | 0.0 | 0.00 | 1.17 | 0.00 | 99 | 1014.2 |
| 20260506223048 | 6 | 0 | 0.0 | 0.0 | 0.00 | 1.22 | 0.00 | 99 | 1014.1 |
| 20260506222047 | 6 | 0 | 0.0 | 0.0 | 0.00 | 1.24 | 0.00 | 99 | 1014.0 |
| 20260506221045 | 6 | 0 | 0.0 | 0.0 | 0.00 | 1.27 | 0.00 | 99 | 1013.9 |
| 20260506220055 | 6 | 0 | 0.0 | 0.0 | 0.00 | 1.27 | 0.00 | 99 | 1013.8 |
| 20260506213048 | 6 | 0 | 0.0 | 0.0 | 0.00 | 1.30 | 1.27 | 98 | 1013.6 |
| 20260506212049 | 7 | 0 | 0.0 | 0.0 | 0.00 | 1.32 | 1.27 | 98 | 1013.5 |
| 20260506211049 | 7 | 0 | 0.0 | 0.0 | 0.00 | 1.32 | 1.27 | 99 | 1013.3 |
| 20260506210048 | 7 | 0 | 0.0 | 0.0 | 0.00 | 1.32 | 1.27 | 98 | 1013.2 |
| 20260506205048 | 7 | 0 | 0.0 | 0.0 | 0.00 | 1.35 | 1.27 | 98 | 1013.1 |
| 20260506204047 | 7 | 0 | 0.0 | 0.0 | 0.00 | 1.35 | 1.27 | 98 | 1012.9 |
| 20260506203049 | 8 | 0 | 0.0 | 0.0 | 0.00 | 1.35 | 1.27 | 98 | 1012.8 |
| 20260506202047 | 8 | 0 | 0.0 | 0.0 | 0.00 | 1.37 | 1.27 | 98 | 1012.7 |
| 20260506201051 | 8 | 0 | 0.0 | 0.0 | 0.00 | 1.37 | 1.27 | 98 | 1012.6 |
| 20260506200049 | 9 | 0 | 0.0 | 0.0 | 0.00 | 1.37 | 1.27 | 97 | 1012.5 |
| 20260506195048 | 9 | 0 | 0.0 | 0.0 | 0.00 | 1.37 | 1.27 | 97 | 1012.4 |
| 20260506193050 | 10 | 0 | 0.0 | 0.0 | 0.00 | 1.40 | 1.27 | 98 | 1012.2 |
| 20260506192046 | 10 | 0 | 0.0 | 0.0 | 0.00 | 1.42 | 1.27 | 97 | 1012.1 |
| 20260506191046 | 10 | 0 | 0.0 | 0.0 | 0.00 | 1.45 | 1.27 | 97 | 1012.1 |
| 20260506190048 | 10 | 0 | 0.0 | 0.0 | 0.00 | 1.45 | 1.27 | 96 | 1012.0 |
| 20260506184046 | 10 | 0 | 0.0 | 0.0 | 0.00 | 1.50 | 1.27 | 95 | 1011.8 |
| 20260506183054 | 10 | 0 | 0.0 | 0.0 | 0.00 | 1.50 | 1.27 | 93 | 1011.8 |
| 20260506182049 | 10 | 0 | 0.0 | 0.0 | 0.00 | 1.52 | 1.27 | 93 | 1011.6 |
| 20260506181045 | 10 | 0 | 0.0 | 0.0 | 0.00 | 1.55 | 1.27 | 92 | 1011.5 |
| 20260506180048 | 10 | 0 | 0.0 | 0.0 | 0.00 | 1.55 | 1.27 | 92 | 1011.4 |
| 20260506175049 | 10 | 0 | 0.0 | 0.0 | 0.00 | 1.55 | 1.27 | 91 | 1011.3 |
| 20260506174049 | 10 | 0 | 0.0 | 0.0 | 0.00 | 1.55 | 1.27 | 90 | 1011.2 |
| 20260506173045 | 10 | 0 | 0.0 | 0.0 | 0.00 | 1.57 | 1.27 | 88 | 1011.1 |
| 20260506171050 | 11 | 0 | 0.0 | 0.0 | 0.00 | 1.60 | 1.27 | 92 | 1010.9 |
| 20260506170045 | 11 | 0 | 0.0 | 0.0 | 0.00 | 1.63 | 1.27 | 91 | 1010.9 |
| 20260506165044 | 11 | 0 | 0.0 | 0.0 | 0.00 | 1.63 | 1.27 | 90 | 1010.9 |
| 20260506164046 | 11 | 0 | 0.0 | 0.0 | 0.00 | 1.63 | 1.27 | 88 | 1010.8 |
| 20260506163046 | 11 | 0 | 0.0 | 0.0 | 0.00 | 1.65 | 1.27 | 89 | 1010.7 |